Location: *
(28.3744°N, 81.5492°W)
Time: 03:59:22
(UTC+00:00)

Delta 198 - Pass Details

Date: 15 June 2025
Orbit: 450 x 932 km, 24.8° (Epoch: 11 July)

Event Time Altitude Azimuth Distance (km) Brightness Sun altitude
Rises 02:18:00 0° 266° (W) 2,590 7.4 -21.2°
Reaches altitude 10° 02:20:23 10° 258° (WSW) 1,650 6.2 -21.5°
Enters shadow 02:22:44 29° 231° (SW) 876 4.3 -21.9°
